TimeCST,TemperatureF,Dew PointF,Humidity,Sea Level PressureIn,VisibilityMPH,Wind Direction,Wind SpeedMPH,Gust SpeedMPH,PrecipitationIn,Events,Conditions,WindDirDegrees,DateUTC
12:15 AM,45.7,35.4,67,30.10,10.0,Calm,Calm,-,N/A,,Clear,0,2014-02-22 06:15:00
12:35 AM,46.0,41.2,83,30.10,10.0,Calm,Calm,-,N/A,,Clear,0,2014-02-22 06:35:00
12:55 AM,45.5,39.7,80,30.10,10.0,Calm,Calm,-,N/A,,Clear,0,2014-02-22 06:55:00
1:15 AM,45.9,40.1,80,30.10,10.0,Calm,Calm,-,N/A,,Clear,0,2014-02-22 07:15:00
1:35 AM,45.7,40.3,81,30.10,10.0,Calm,Calm,-,N/A,,Clear,0,2014-02-22 07:35:00
1:55 AM,45.7,39.4,79,30.09,10.0,Calm,Calm,-,N/A,,Clear,0,2014-02-22 07:55:00
2:15 AM,45.5,40.5,83,30.09,10.0,Calm,Calm,-,N/A,,Clear,0,2014-02-22 08:15:00
2:35 AM,46.0,40.8,82,30.08,10.0,Calm,Calm,-,N/A,,Clear,0,2014-02-22 08:35:00
2:55 AM,45.0,38.7,79,30.08,10.0,Calm,Calm,-,N/A,,Clear,0,2014-02-22 08:55:00
3:15 AM,44.6,38.8,80,30.09,10.0,Calm,Calm,-,N/A,,Clear,0,2014-02-22 09:15:00
3:35 AM,44.6,39.0,81,30.08,10.0,Calm,Calm,-,N/A,,Clear,0,2014-02-22 09:35:00
3:55 AM,44.2,39.6,84,30.08,10.0,Calm,Calm,-,N/A,,Clear,0,2014-02-22 09:55:00
4:15 AM,44.1,40.1,86,30.08,10.0,Calm,Calm,-,N/A,,Clear,0,2014-02-22 10:15:00
4:35 AM,43.0,39.4,87,30.09,10.0,Calm,Calm,-,N/A,,Clear,0,2014-02-22 10:35:00
4:55 AM,43.9,39.7,85,30.09,10.0,Calm,Calm,-,N/A,,Clear,0,2014-02-22 10:55:00
5:15 AM,43.0,39.0,86,30.10,10.0,Calm,Calm,-,N/A,,Clear,0,2014-02-22 11:15:00
5:35 AM,44.4,40.1,85,30.11,10.0,Calm,Calm,-,N/A,,Clear,0,2014-02-22 11:35:00
5:55 AM,44.6,40.3,85,30.11,10.0,Calm,Calm,-,N/A,,Clear,0,2014-02-22 11:55:00
6:15 AM,44.1,41.5,91,30.11,10.0,Calm,Calm,-,N/A,,Clear,0,2014-02-22 12:15:00
6:35 AM,44.6,42.1,91,30.11,10.0,Calm,Calm,-,N/A,,Clear,0,2014-02-22 12:35:00
6:55 AM,45.1,42.3,90,30.12,10.0,Calm,Calm,-,N/A,,Clear,0,2014-02-22 12:55:00
7:15 AM,46.4,43.3,89,30.13,10.0,Calm,Calm,-,N/A,,Clear,0,2014-02-22 13:15:00
7:35 AM,48.9,43.9,83,30.12,10.0,Calm,Calm,-,N/A,,Clear,0,2014-02-22 13:35:00
7:55 AM,52.2,44.6,75,30.14,10.0,NE,6.9,-,N/A,,Clear,50,2014-02-22 13:55:00
8:15 AM,54.5,45.3,71,30.14,10.0,East,5.8,-,N/A,,Clear,80,2014-02-22 14:15:00
8:35 AM,56.5,43.0,61,30.14,10.0,ENE,4.6,-,N/A,,Clear,70,2014-02-22 14:35:00
8:55 AM,57.2,41.0,55,30.14,10.0,East,4.6,-,N/A,,Clear,80,2014-02-22 14:55:00
9:15 AM,59.0,41.0,51,30.15,10.0,East,5.8,-,N/A,,Clear,90,2014-02-22 15:15:00
9:35 AM,60.3,40.5,48,30.15,10.0,East,4.6,-,N/A,,Clear,90,2014-02-22 15:35:00
9:55 AM,62.2,38.7,42,30.15,10.0,East,5.8,-,N/A,,Clear,80,2014-02-22 15:55:00
10:15 AM,62.6,35.1,36,30.14,10.0,East,6.9,-,N/A,,Clear,80,2014-02-22 16:15:00
10:35 AM,64.2,32.0,30,30.14,10.0,East,11.5,-,N/A,,Clear,90,2014-02-22 16:35:00
10:55 AM,63.5,31.5,30,30.13,10.0,East,10.4,16.1,N/A,,Clear,90,2014-02-22 16:55:00
11:15 AM,63.7,33.3,32,30.13,10.0,East,5.8,-,N/A,,Clear,80,2014-02-22 17:15:00
11:35 AM,64.2,34.3,33,30.12,10.0,ENE,3.5,-,N/A,,Clear,60,2014-02-22 17:35:00
11:55 AM,64.4,32.7,31,30.11,10.0,ENE,8.1,-,N/A,,Clear,70,2014-02-22 17:55:00
12:15 PM,64.4,32.7,31,30.10,10.0,East,8.1,-,N/A,,Clear,80,2014-02-22 18:15:00
12:35 PM,65.5,33.6,31,30.10,10.0,ENE,4.6,-,N/A,,Clear,60,2014-02-22 18:35:00
12:55 PM,66.6,34.7,31,30.08,10.0,ENE,4.6,-,N/A,,Clear,70,2014-02-22 18:55:00
1:10 PM,66.4,35.1,31,30.06,10.0,NE,4.6,-,N/A,,Clear,50,2014-02-22 19:10:00
1:35 PM,67.8,39.6,36,30.05,10.0,ENE,4.6,-,N/A,,Clear,70,2014-02-22 19:35:00
1:55 PM,67.5,41.5,39,30.04,10.0,ENE,6.9,-,N/A,,Clear,70,2014-02-22 19:55:00
2:15 PM,67.1,43.5,42,30.03,10.0,Calm,Calm,-,N/A,,Clear,0,2014-02-22 20:15:00
2:35 PM,68.2,42.8,40,30.03,10.0,ESE,4.6,-,N/A,,Clear,110,2014-02-22 20:35:00
2:55 PM,68.5,40.8,36,30.02,10.0,SE,10.4,16.1,N/A,,Clear,140,2014-02-22 20:55:00
3:15 PM,69.1,40.3,35,30.02,10.0,SE,5.8,-,N/A,,Clear,130,2014-02-22 21:15:00
3:35 PM,68.4,39.4,35,30.02,10.0,ESE,6.9,-,N/A,,Clear,120,2014-02-22 21:35:00
3:50 PM,68.5,40.1,35,30.02,10.0,SE,9.2,-,N/A,,Clear,140,2014-02-22 21:50:00
4:15 PM,68.0,40.8,37,30.01,10.0,East,4.6,-,N/A,,Clear,100,2014-02-22 22:15:00
4:35 PM,65.7,45.0,47,30.01,10.0,ENE,6.9,-,N/A,,Clear,60,2014-02-22 22:35:00
4:55 PM,64.8,44.4,48,30.01,10.0,NE,4.6,-,N/A,,Clear,50,2014-02-22 22:55:00
5:15 PM,63.5,44.6,50,30.01,10.0,ENE,4.6,-,N/A,,Clear,60,2014-02-22 23:15:00
5:35 PM,62.6,45.0,52,30.01,10.0,NE,4.6,-,N/A,,Scattered Clouds,50,2014-02-22 23:35:00
5:55 PM,61.7,44.4,53,30.01,10.0,ENE,3.5,-,N/A,,Mostly Cloudy,60,2014-02-22 23:55:00
6:15 PM,60.8,44.4,55,30.01,10.0,East,5.8,-,N/A,,Scattered Clouds,90,2014-02-23 00:15:00
6:35 PM,60.3,45.3,58,30.00,10.0,Calm,Calm,-,N/A,,Scattered Clouds,0,2014-02-23 00:35:00
6:55 PM,59.7,46.0,61,29.99,10.0,Calm,Calm,-,N/A,,Clear,0,2014-02-23 00:55:00
7:15 PM,59.2,46.4,63,30.00,10.0,Calm,Calm,-,N/A,,Clear,0,2014-02-23 01:15:00
7:35 PM,59.2,46.8,63,30.00,10.0,Calm,Calm,-,N/A,,Clear,0,2014-02-23 01:35:00
7:55 PM,58.6,46.9,65,30.00,10.0,ESE,3.5,-,N/A,,Clear,110,2014-02-23 01:55:00
8:15 PM,59.2,47.5,65,30.00,10.0,East,3.5,-,N/A,,Clear,100,2014-02-23 02:15:00
8:35 PM,59.4,47.8,66,30.01,10.0,Calm,Calm,-,N/A,,Clear,0,2014-02-23 02:35:00
8:55 PM,59.5,46.8,63,30.02,10.0,Calm,Calm,-,N/A,,Clear,0,2014-02-23 02:55:00
9:15 PM,60.1,47.3,63,30.02,10.0,Calm,Calm,-,N/A,,Clear,0,2014-02-23 03:15:00
9:35 PM,60.1,48.6,66,30.00,10.0,ESE,6.9,-,N/A,,Scattered Clouds,120,2014-02-23 03:35:00
9:55 PM,60.1,50.0,69,30.01,10.0,East,3.5,-,N/A,,Scattered Clouds,100,2014-02-23 03:55:00
10:15 PM,59.9,51.4,74,30.01,10.0,Calm,Calm,-,N/A,,Clear,0,2014-02-23 04:15:00
10:35 PM,59.9,52.3,76,30.00,10.0,ESE,6.9,-,N/A,,Scattered Clouds,120,2014-02-23 04:35:00
10:55 PM,59.9,53.1,78,30.00,10.0,ESE,4.6,-,N/A,,Scattered Clouds,110,2014-02-23 04:55:00
11:15 PM,59.9,53.2,79,29.99,10.0,ESE,5.8,-,N/A,,Clear,110,2014-02-23 05:15:00
11:35 PM,60.1,53.8,80,30.00,10.0,East,5.8,-,N/A,,Mostly Cloudy,100,2014-02-23 05:35:00
11:55 PM,60.1,54.1,81,29.99,10.0,East,3.5,-,N/A,,Overcast,100,2014-02-23 05:55:00